When you browse on this site, cookies collect data to enhance your experience and personalize the content and advertising you see.
Visit our Privacy Policy to learn more. By continuing to use the site, you agree to this use of cookies and data.
  • In Sweden
  • List of Countries
  • For 7 days
  • Water Temperature
  • Satellite Maps
  • Weather Map
  • Weather Widgets
  • user-avatar
    Login

    Hourly Weather Krasnoarmeyka

    Today, 19 June, Wednesday

    Time Temperature Precipitation Wind Pressure Humidity
    00:00 +12°C° 0 mm 3 mps 744 mmHg 64%
    01:00 +12°C° 0 mm 2 mps 744 mmHg 66%
    02:00 +12°C° 0 mm 2 mps 744 mmHg 67%
    03:00 +12°C° 0.1 mm 2 mps 744 mmHg 70%
    04:00 +13°C° 0.1 mm 1 mps 745 mmHg 72%
    05:00 +13°C° 0.1 mm 1 mps 745 mmHg 74%
    06:00 +13°C° 0.1 mm 2 mps 745 mmHg 74%
    07:00 +14°C° 0.1 mm 2 mps 745 mmHg 74%
    08:00 +13°C° 0.1 mm 3 mps 745 mmHg 74%
    09:00 +14°C° 0 mm 3 mps 745 mmHg 68%
    10:00 +17°C° 0 mm 3 mps 745 mmHg 63%
    11:00 +18°C° 0 mm 3 mps 745 mmHg 57%
    12:00 +19°C° 0 mm 3 mps 745 mmHg 52%
    13:00 +20°C° 0 mm 2 mps 745 mmHg 48%
    14:00 +23°C° 0 mm 1 mps 745 mmHg 43%
    15:00 +23°C° 0 mm 2 mps 745 mmHg 43%
    16:00 +23°C° 0 mm 2 mps 745 mmHg 43%
    17:00 +22°C° 0 mm 3 mps 745 mmHg 44%
    18:00 +21°C° 0 mm 3 mps 745 mmHg 50%
    19:00 +19°C° 0 mm 3 mps 746 mmHg 56%
    20:00 +18°C° 0 mm 2 mps 746 mmHg 63%
    21:00 +17°C° 0 mm 2 mps 746 mmHg 65%
    22:00 +16°C° 0 mm 2 mps 747 mmHg 67%
    23:00 +15°C° 0 mm 2 mps 747 mmHg 69%

    Tomorrow, 20 June, Thursday

    Time Temperature Precipitation Wind Pressure Humidity
    00:00 +15°C° 0 mm 2 mps 747 mmHg 71%
    01:00 +14°C° 0 mm 2 mps 747 mmHg 74%
    02:00 +14°C° 0 mm 2 mps 748 mmHg 77%
    03:00 +14°C° 0 mm 2 mps 748 mmHg 78%
    04:00 +14°C° 0 mm 2 mps 748 mmHg 79%
    05:00 +14°C° 0 mm 2 mps 749 mmHg 80%
    06:00 +16°C° 0 mm 2 mps 749 mmHg 74%
    07:00 +17°C° 0 mm 2 mps 749 mmHg 68%
    08:00 +19°C° 0 mm 2 mps 750 mmHg 62%
    09:00 +20°C° 0 mm 2 mps 750 mmHg 56%
    10:00 +21°C° 0 mm 2 mps 750 mmHg 50%
    11:00 +23°C° 0 mm 2 mps 750 mmHg 44%
    12:00 +23°C° 0 mm 2 mps 750 mmHg 41%
    13:00 +24°C° 0 mm 2 mps 750 mmHg 39%
    14:00 +24°C° 0 mm 2 mps 749 mmHg 36%
    15:00 +24°C° 0 mm 2 mps 749 mmHg 36%
    16:00 +24°C° 0 mm 2 mps 749 mmHg 36%
    17:00 +24°C° 0 mm 2 mps 749 mmHg 36%
    18:00 +23°C° 0 mm 2 mps 749 mmHg 42%
    19:00 +21°C° 0 mm 2 mps 750 mmHg 47%
    20:00 +20°C° 0 mm 1 mps 750 mmHg 53%
    21:00 +19°C° 0 mm 2 mps 750 mmHg 55%
    22:00 +18°C° 0 mm 2 mps 750 mmHg 57%
    23:00 +17°C° 0 mm 2 mps 749 mmHg 59%

    Day after tomorrow, 21 June, Friday

    Time Temperature Precipitation Wind Pressure Humidity
    00:00 +17°C° 0 mm 2 mps 750 mmHg 61%
    01:00 +16°C° 0 mm 2 mps 750 mmHg 63%
    02:00 +16°C° 0 mm 2 mps 750 mmHg 65%
    03:00 +16°C° 0 mm 2 mps 750 mmHg 65%
    04:00 +18°C° 0 mm 1 mps 749 mmHg 66%
    05:00 +18°C° 0 mm 1 mps 749 mmHg 66%
    06:00 +20°C° 0 mm 1 mps 749 mmHg 60%
    07:00 +21°C° 0 mm 1 mps 749 mmHg 53%
    08:00 +23°C° 0 mm 1 mps 749 mmHg 46%
    09:00 +24°C° 0 mm 2 mps 749 mmHg 43%
    10:00 +25°C° 0 mm 2 mps 749 mmHg 39%
    11:00 +26°C° 0 mm 2 mps 749 mmHg 35%
    12:00 +27°C° 0 mm 2 mps 748 mmHg 34%
    13:00 +27°C° 0 mm 2 mps 748 mmHg 32%
    14:00 +28°C° 0 mm 2 mps 747 mmHg 30%
    15:00 +28°C° 0 mm 1 mps 747 mmHg 30%
    16:00 +28°C° 0 mm 1 mps 746 mmHg 29%
    17:00 +28°C° 0 mm 1 mps 746 mmHg 29%
    18:00 +27°C° 0 mm 1 mps 746 mmHg 35%
    19:00 +25°C° 0 mm 1 mps 746 mmHg 41%
    20:00 +23°C° 0 mm 1 mps 746 mmHg 46%
    21:00 +21°C° 0 mm 2 mps 746 mmHg 47%
    22:00 +21°C° 0 mm 2 mps 745 mmHg 48%
    23:00 +20°C° 0 mm 2 mps 745 mmHg 49%

    22 June, Saturday

    Time Temperature Precipitation Wind Pressure Humidity
    00:00 +20°C° 0 mm 2 mps 745 mmHg 50%
    01:00 +20°C° 0 mm 3 mps 744 mmHg 52%
    02:00 +19°C° 0 mm 3 mps 744 mmHg 54%
    03:00 +19°C° 0 mm 2 mps 744 mmHg 56%
    04:00 +19°C° 0 mm 2 mps 744 mmHg 58%
    05:00 +19°C° 0 mm 2 mps 743 mmHg 60%
    06:00 +21°C° 0 mm 2 mps 744 mmHg 56%
    07:00 +24°C° 0 mm 2 mps 744 mmHg 50%
    08:00 +26°C° 0 mm 3 mps 744 mmHg 44%
    09:00 +27°C° 0 mm 3 mps 744 mmHg 42%
    10:00 +27°C° 0 mm 4 mps 744 mmHg 41%
    11:00 +28°C° 0 mm 5 mps 744 mmHg 40%
    12:00 +28°C° 0.6 mm 5 mps 744 mmHg 43%
    13:00 +27°C° 0.6 mm 6 mps 744 mmHg 47%
    14:00 +26°C° 0.6 mm 6 mps 744 mmHg 51%
    15:00 +26°C° 0 mm 6 mps 744 mmHg 49%
    16:00 +24°C° 0 mm 7 mps 744 mmHg 46%
    17:00 +24°C° 0 mm 7 mps 744 mmHg 44%
    18:00 +22°C° 0 mm 7 mps 745 mmHg 49%
    19:00 +21°C° 0 mm 7 mps 745 mmHg 55%
    20:00 +18°C° 0 mm 7 mps 746 mmHg 60%
    21:00 +17°C° 0 mm 7 mps 746 mmHg 65%
    22:00 +15°C° 0 mm 7 mps 747 mmHg 69%
    23:00 +14°C° 0 mm 6 mps 747 mmHg 73%

    23 June, Sunday

    Time Temperature Precipitation Wind Pressure Humidity
    00:00 +13°C° 0 mm 6 mps 747 mmHg 76%
    01:00 +13°C° 0 mm 6 mps 747 mmHg 79%
    02:00 +12°C° 0 mm 5 mps 747 mmHg 83%
    03:00 +12°C° 0 mm 5 mps 748 mmHg 80%
    04:00 +10°C° 0 mm 6 mps 748 mmHg 78%
    05:00 +10°C° 0 mm 6 mps 748 mmHg 75%
    06:00 +11°C° 0 mm 6 mps 748 mmHg 68%
    07:00 +14°C° 0 mm 6 mps 749 mmHg 60%
    08:00 +15°C° 0 mm 7 mps 749 mmHg 53%
    09:00 +15°C° 0 mm 7 mps 749 mmHg 50%
    10:00 +16°C° 0 mm 7 mps 749 mmHg 46%
    11:00 +17°C° 0 mm 7 mps 749 mmHg 43%
    12:00 +17°C° 0 mm 7 mps 749 mmHg 42%
    13:00 +18°C° 0 mm 7 mps 749 mmHg 40%
    14:00 +18°C° 0 mm 7 mps 749 mmHg 39%
    15:00 +18°C° 0 mm 7 mps 749 mmHg 40%
    16:00 +19°C° 0 mm 6 mps 750 mmHg 40%
    17:00 +19°C° 0 mm 6 mps 750 mmHg 41%
    18:00 +18°C° 0 mm 4 mps 750 mmHg 46%
    19:00 +16°C° 0 mm 3 mps 750 mmHg 51%
    20:00 +15°C° 0 mm 2 mps 750 mmHg 56%
    21:00 +14°C° 0 mm 1 mps 750 mmHg 59%
    22:00 +14°C° 0 mm 1 mps 750 mmHg 61%
    23:00 +13°C° 0 mm 1 mps 750 mmHg 64%

    24 June, Monday

    Time Temperature Precipitation Wind Pressure Humidity
    00:00 +13°C° 0 mm 1 mps 750 mmHg 65%
    01:00 +12°C° 0 mm 2 mps 750 mmHg 66%
    02:00 +12°C° 0 mm 2 mps 750 mmHg 67%
    03:00 +12°C° 0 mm 2 mps 750 mmHg 66%
    04:00 +13°C° 0 mm 2 mps 750 mmHg 64%
    05:00 +13°C° 0 mm 2 mps 750 mmHg 63%
    06:00 +15°C° 0 mm 2 mps 750 mmHg 57%
    07:00 +17°C° 0 mm 3 mps 749 mmHg 50%
    08:00 +18°C° 0 mm 3 mps 749 mmHg 44%
    09:00 +19°C° 0 mm 3 mps 749 mmHg 41%
    10:00 +21°C° 0 mm 3 mps 749 mmHg 38%
    11:00 +22°C° 0 mm 3 mps 749 mmHg 36%
    12:00 +22°C° 0 mm 3 mps 748 mmHg 35%
    13:00 +24°C° 0 mm 3 mps 748 mmHg 34%
    14:00 +25°C° 0 mm 3 mps 748 mmHg 33%
    15:00 +25°C° 0 mm 3 mps 747 mmHg 34%
    16:00 +25°C° 0 mm 2 mps 747 mmHg 35%
    17:00 +25°C° 0 mm 2 mps 747 mmHg 36%
    18:00 +24°C° 0 mm 2 mps 747 mmHg 42%
    19:00 +22°C° 0 mm 1 mps 747 mmHg 49%
    20:00 +21°C° 0 mm 1 mps 747 mmHg 55%
    21:00 +20°C° 0 mm 1 mps 747 mmHg 55%
    22:00 +19°C° 0 mm 1 mps 747 mmHg 56%
    23:00 +19°C° 0 mm 1 mps 747 mmHg 56%
    Show more